Time,TemperatureF,DewpointF,PressureIn,WindDirection,WindDirectionDegrees,WindSpeedMPH,WindSpeedGustMPH,Humidity,HourlyPrecipIn,Conditions,Clouds,dailyrainin,SoftwareType,DateUTC
2013-05-02 00:03:00,40.8,33.4,30.24,NNE,22,7.4,19.9,75,0.06,,,0.06,wxRedirect v1.1,2013-05-02 05:03:00,
2013-05-02 00:08:00,40.6,33.3,30.24,NNE,22,9.8,27.5,75,0.14,,,0.14,wxRedirect v1.1,2013-05-02 05:08:00,
2013-05-02 00:13:00,40.6,33.6,30.27,NNE,22,16.8,27.5,76,0.18,,,0.18,wxRedirect v1.1,2013-05-02 05:13:00,
2013-05-02 00:19:00,40.3,33.3,30.25,North,0,13.0,16.8,76,0.20,,,0.20,wxRedirect v1.1,2013-05-02 05:19:00,
2013-05-02 00:24:00,40.3,33.3,30.26,NE,45,11.2,16.3,76,0.22,,,0.22,wxRedirect v1.1,2013-05-02 05:24:00,
2013-05-02 00:29:00,40.3,33.6,30.26,North,0,14.5,16.1,77,0.24,,,0.24,wxRedirect v1.1,2013-05-02 05:29:00,
2013-05-02 00:35:00,40.3,33.6,30.27,NNW,337,8.9,15.7,77,0.26,,,0.26,wxRedirect v1.1,2013-05-02 05:35:00,
2013-05-02 00:40:00,40.1,33.8,30.24,NE,45,10.7,18.3,78,0.29,,,0.29,wxRedirect v1.1,2013-05-02 05:40:00,
2013-05-02 00:45:00,39.9,33.6,30.24,North,0,13.0,18.3,78,0.29,,,0.29,wxRedirect v1.1,2013-05-02 05:45:00,
2013-05-02 00:51:00,39.7,33.4,30.25,NNW,337,8.9,13.0,78,0.29,,,0.29,wxRedirect v1.1,2013-05-02 05:51:00,
2013-05-02 00:56:00,39.6,33.3,30.30,NNW,337,7.2,13.0,78,0.26,,,0.29,wxRedirect v1.1,2013-05-02 05:56:00,
2013-05-02 01:02:00,39.6,33.3,30.29,NNW,337,6.0,11.4,78,0.20,,,0.29,wxRedirect v1.1,2013-05-02 06:02:00,
2013-05-02 01:08:00,39.4,33.4,30.27,NNE,22,18.8,18.8,79,0.20,,,0.37,wxRedirect v1.1,2013-05-02 06:08:00,
2013-05-02 01:13:00,39.2,33.3,30.26,NE,45,21.0,21.0,79,0.31,,,0.49,wxRedirect v1.1,2013-05-02 06:13:00,
2013-05-02 01:18:00,39.0,33.1,30.22,NE,45,16.8,21.0,79,0.33,,,0.53,wxRedirect v1.1,2013-05-02 06:18:00,
2013-05-02 01:24:00,38.8,32.9,30.25,NE,45,14.1,18.8,79,0.39,,,0.61,wxRedirect v1.1,2013-05-02 06:24:00,
2013-05-02 01:29:00,38.1,32.2,30.29,NE,45,3.6,14.1,79,0.39,,,0.63,wxRedirect v1.1,2013-05-02 06:29:00,
2013-05-02 01:34:00,38.8,33.3,30.32,NNW,337,5.8,11.0,80,0.41,,,0.67,wxRedirect v1.1,2013-05-02 06:34:00,
2013-05-02 01:40:00,38.5,32.9,30.28,North,0,5.6,10.5,80,0.43,,,0.71,wxRedirect v1.1,2013-05-02 06:40:00,
2013-05-02 01:45:00,38.7,33.1,30.24,NNE,22,13.6,15.4,80,0.53,,,0.82,wxRedirect v1.1,2013-05-02 06:45:00,
2013-05-02 01:50:00,38.5,32.9,30.27,NNW,337,7.8,15.4,80,0.55,,,0.84,wxRedirect v1.1,2013-05-02 06:50:00,
2013-05-02 01:56:00,38.5,32.9,30.28,NNW,337,12.3,23.9,80,0.57,,,0.86,wxRedirect v1.1,2013-05-02 06:56:00,
2013-05-02 02:01:00,38.8,33.3,30.28,NNE,22,14.3,20.8,80,0.49,,,0.86,wxRedirect v1.1,2013-05-02 07:01:00,
2013-05-02 02:06:00,38.8,32.9,30.28,NNE,22,11.6,21.5,80,0.49,,,0.86,wxRedirect v1.1,2013-05-02 07:06:00,
2013-05-02 02:12:00,38.8,33.5,30.27,NNE,22,10.1,21.5,81,0.37,,,0.88,wxRedirect v1.1,2013-05-02 07:12:00,
2013-05-02 02:17:00,38.8,33.5,30.28,North,0,16.3,16.3,81,0.33,,,0.88,wxRedirect v1.1,2013-05-02 07:17:00,
2013-05-02 02:22:00,38.8,33.5,30.28,North,0,8.5,16.3,81,0.26,,,0.88,wxRedirect v1.1,2013-05-02 07:22:00,
2013-05-02 02:28:00,39.0,33.4,30.29,North,0,12.1,16.3,80,0.22,,,0.88,wxRedirect v1.1,2013-05-02 07:28:00,
2013-05-02 02:33:00,39.0,33.4,30.29,NE,45,13.4,14.8,80,0.20,,,0.88,wxRedirect v1.1,2013-05-02 07:33:00,
2013-05-02 02:38:00,39.0,33.4,30.29,North,0,10.3,23.3,80,0.16,,,0.88,wxRedirect v1.1,2013-05-02 07:38:00,
2013-05-02 02:44:00,39.0,33.4,30.28,NNW,337,15.7,23.3,80,0.04,,,0.88,wxRedirect v1.1,2013-05-02 07:44:00,
2013-05-02 02:49:00,38.3,32.7,30.28,NNW,337,14.1,18.1,80,0.04,,,0.88,wxRedirect v1.1,2013-05-02 07:49:00,
2013-05-02 02:54:00,39.0,33.4,30.27,NNE,22,8.3,15.7,80,0.02,,,0.88,wxRedirect v1.1,2013-05-02 07:54:00,
2013-05-02 03:00:00,39.0,33.4,30.28,NNW,337,16.8,16.8,80,0.02,,,0.88,wxRedirect v1.1,2013-05-02 08:00:00,
2013-05-02 03:05:00,39.0,33.4,30.28,North,0,12.8,16.8,80,0.02,,,0.88,wxRedirect v1.1,2013-05-02 08:05:00,
2013-05-02 03:10:00,39.0,33.4,30.29,North,0,8.3,12.8,80,0.00,,,0.88,wxRedirect v1.1,2013-05-02 08:10:00,
2013-05-02 03:16:00,39.0,33.4,30.30,NNW,337,15.9,15.9,80,0.00,,,0.88,wxRedirect v1.1,2013-05-02 08:16:00,
2013-05-02 03:21:00,39.0,33.4,30.30,NE,45,7.2,15.9,80,0.00,,,0.88,wxRedirect v1.1,2013-05-02 08:21:00,
2013-05-02 03:26:00,39.0,33.4,30.29,NNE,22,4.9,21.7,80,0.00,,,0.88,wxRedirect v1.1,2013-05-02 08:26:00,
2013-05-02 03:32:00,39.0,33.1,30.29,NNE,22,18.1,25.5,79,0.00,,,0.88,wxRedirect v1.1,2013-05-02 08:32:00,
2013-05-02 03:37:00,39.0,33.1,30.30,ENE,67,17.0,25.5,79,0.00,,,0.88,wxRedirect v1.1,2013-05-02 08:37:00,
2013-05-02 03:42:00,38.8,32.9,30.30,NNE,22,13.9,18.6,79,0.00,,,0.88,wxRedirect v1.1,2013-05-02 08:42:00,
2013-05-02 03:48:00,38.8,32.9,30.30,North,0,4.7,18.6,79,0.00,,,0.88,wxRedirect v1.1,2013-05-02 08:48:00,
2013-05-02 03:53:00,38.1,32.2,30.31,NNW,337,6.0,14.1,79,0.00,,,0.88,wxRedirect v1.1,2013-05-02 08:53:00,
2013-05-02 03:58:00,38.1,32.2,30.31,NNE,22,15.4,22.8,79,0.00,,,0.88,wxRedirect v1.1,2013-05-02 08:58:00,
2013-05-02 04:04:00,38.8,32.9,30.31,NNE,22,16.3,22.8,79,0.00,,,0.88,wxRedirect v1.1,2013-05-02 09:04:00,
2013-05-02 04:09:00,37.9,32.0,30.31,North,0,13.0,20.4,79,0.00,,,0.88,wxRedirect v1.1,2013-05-02 09:09:00,
2013-05-02 04:14:00,38.5,32.6,30.32,North,0,14.3,25.7,79,0.02,,,0.90,wxRedirect v1.1,2013-05-02 09:14:00,
2013-05-02 04:20:00,38.5,32.6,30.31,NNW,337,7.8,25.7,79,0.02,,,0.90,wxRedirect v1.1,2013-05-02 09:20:00,
2013-05-02 04:25:00,38.3,32.4,30.32,NNE,22,16.6,22.6,79,0.02,,,0.90,wxRedirect v1.1,2013-05-02 09:25:00,
2013-05-02 04:30:00,38.3,32.4,30.33,North,0,17.4,22.6,79,0.02,,,0.90,wxRedirect v1.1,2013-05-02 09:30:00,
2013-05-02 04:36:00,38.3,32.4,30.34,North,0,15.9,17.4,79,0.02,,,0.90,wxRedirect v1.1,2013-05-02 09:36:00,
2013-05-02 04:41:00,38.1,32.5,30.32,North,0,6.7,17.4,80,0.02,,,0.90,wxRedirect v1.1,2013-05-02 09:41:00,
2013-05-02 04:46:00,38.1,32.5,30.33,NNE,22,17.4,17.4,80,0.02,,,0.90,wxRedirect v1.1,2013-05-02 09:46:00,
2013-05-02 04:52:00,38.1,32.5,30.32,NNW,337,8.9,18.6,80,0.04,,,0.92,wxRedirect v1.1,2013-05-02 09:52:00,
2013-05-02 04:57:00,37.9,32.4,30.33,North,0,7.4,18.6,80,0.04,,,0.92,wxRedirect v1.1,2013-05-02 09:57:00,
2013-05-02 05:02:00,37.9,32.4,30.34,North,0,13.6,15.4,80,0.04,,,0.92,wxRedirect v1.1,2013-05-02 10:02:00,
2013-05-02 05:08:00,37.9,32.4,30.35,NNW,337,13.9,13.9,80,0.02,,,0.92,wxRedirect v1.1,2013-05-02 10:08:00,
2013-05-02 05:13:00,37.9,32.4,30.34,NNW,337,16.6,16.6,80,0.02,,,0.92,wxRedirect v1.1,2013-05-02 10:13:00,
2013-05-02 05:18:00,37.8,32.2,30.33,North,0,23.7,30.2,80,0.02,,,0.92,wxRedirect v1.1,2013-05-02 10:18:00,
2013-05-02 05:24:00,37.6,32.0,30.34,North,0,9.4,30.2,80,0.04,,,0.94,wxRedirect v1.1,2013-05-02 10:24:00,
2013-05-02 05:29:00,37.6,32.0,30.35,North,0,9.2,20.6,80,0.04,,,0.94,wxRedirect v1.1,2013-05-02 10:29:00,
2013-05-02 05:34:00,37.4,31.8,30.35,North,0,12.5,29.8,80,0.06,,,0.96,wxRedirect v1.1,2013-05-02 10:34:00,
2013-05-02 05:40:00,37.2,31.6,30.34,NNW,337,15.0,16.3,80,0.06,,,0.96,wxRedirect v1.1,2013-05-02 10:40:00,
2013-05-02 05:45:00,37.2,31.6,30.36,NNW,337,11.2,16.8,80,0.06,,,0.96,wxRedirect v1.1,2013-05-02 10:45:00,
2013-05-02 05:50:00,37.0,31.5,30.38,North,0,8.5,21.0,80,0.06,,,0.98,wxRedirect v1.1,2013-05-02 10:50:00,
2013-05-02 05:56:00,37.0,31.5,30.32,NNE,22,19.5,24.6,80,0.06,,,0.98,wxRedirect v1.1,2013-05-02 10:56:00,
2013-05-02 06:01:00,36.5,30.9,30.35,North,0,22.8,24.6,80,0.06,,,0.98,wxRedirect v1.1,2013-05-02 11:01:00,
2013-05-02 06:06:00,36.3,30.7,30.36,NE,45,11.9,22.8,80,0.08,,,1.00,wxRedirect v1.1,2013-05-02 11:06:00,
2013-05-02 06:12:00,36.3,30.7,30.36,NW,315,13.2,13.2,80,0.08,,,1.00,wxRedirect v1.1,2013-05-02 11:12:00,
2013-05-02 06:17:00,36.3,31.0,30.36,NNE,22,9.2,16.6,81,0.08,,,1.02,wxRedirect v1.1,2013-05-02 11:17:00,
2013-05-02 06:22:00,36.3,31.0,30.35,NE,45,21.7,21.7,81,0.08,,,1.02,wxRedirect v1.1,2013-05-02 11:22:00,
2013-05-02 06:28:00,36.3,31.0,30.35,North,0,24.4,26.6,81,0.08,,,1.02,wxRedirect v1.1,2013-05-02 11:28:00,
2013-05-02 06:33:00,36.3,31.0,30.35,NNW,337,13.0,24.4,81,0.06,,,1.02,wxRedirect v1.1,2013-05-02 11:33:00,
2013-05-02 06:38:00,36.3,31.0,30.37,NNW,337,8.5,21.7,81,0.06,,,1.02,wxRedirect v1.1,2013-05-02 11:38:00,
2013-05-02 06:44:00,36.3,31.0,30.38,NNW,337,8.5,13.4,81,0.06,,,1.02,wxRedirect v1.1,2013-05-02 11:44:00,
2013-05-02 06:49:00,36.3,31.0,30.39,NE,45,14.3,14.3,81,0.06,,,1.02,wxRedirect v1.1,2013-05-02 11:49:00,
2013-05-02 06:54:00,36.1,30.8,30.37,North,0,19.5,19.5,81,0.06,,,1.04,wxRedirect v1.1,2013-05-02 11:54:00,
2013-05-02 07:00:00,36.1,30.8,30.38,North,0,17.0,19.5,81,0.04,,,1.04,wxRedirect v1.1,2013-05-02 12:00:00,
2013-05-02 07:05:00,35.4,30.1,30.39,North,0,20.1,20.1,81,0.04,,,1.04,wxRedirect v1.1,2013-05-02 12:05:00,
2013-05-02 07:10:00,36.1,30.8,30.38,North,0,29.5,29.5,81,0.04,,,1.04,wxRedirect v1.1,2013-05-02 12:10:00,
2013-05-02 07:16:00,36.1,30.8,30.39,North,0,15.0,29.5,81,0.02,,,1.04,wxRedirect v1.1,2013-05-02 12:16:00,
2013-05-02 07:21:00,36.1,30.8,30.40,NNW,337,15.9,26.8,81,0.02,,,1.04,wxRedirect v1.1,2013-05-02 12:21:00,
2013-05-02 07:26:00,36.1,30.8,30.40,North,0,17.4,20.8,81,0.02,,,1.04,wxRedirect v1.1,2013-05-02 12:26:00,
2013-05-02 07:32:00,36.1,30.8,30.40,NNW,337,10.5,20.8,81,0.04,,,1.06,wxRedirect v1.1,2013-05-02 12:32:00,
2013-05-02 07:37:00,36.1,30.8,30.40,NNE,22,14.3,16.6,81,0.04,,,1.06,wxRedirect v1.1,2013-05-02 12:37:00,
2013-05-02 07:42:00,35.4,30.1,30.40,NNE,22,4.9,14.3,81,0.04,,,1.06,wxRedirect v1.1,2013-05-02 12:42:00,
2013-05-02 07:48:00,36.3,31.0,30.40,North,0,13.6,26.4,81,0.04,,,1.06,wxRedirect v1.1,2013-05-02 12:48:00,
2013-05-02 07:53:00,36.3,31.0,30.42,NW,315,11.9,26.4,81,0.02,,,1.06,wxRedirect v1.1,2013-05-02 12:53:00,
2013-05-02 07:58:00,36.3,31.0,30.43,NNW,337,25.5,25.5,81,0.02,,,1.06,wxRedirect v1.1,2013-05-02 12:58:00,
2013-05-02 08:04:00,36.3,31.0,30.41,North,0,21.5,25.5,81,0.02,,,1.06,wxRedirect v1.1,2013-05-02 13:04:00,
2013-05-02 08:09:00,35.6,30.3,30.40,North,0,15.4,21.5,81,0.02,,,1.06,wxRedirect v1.1,2013-05-02 13:09:00,
2013-05-02 08:14:00,36.1,30.8,30.40,North,0,16.3,21.5,81,0.02,,,1.06,wxRedirect v1.1,2013-05-02 13:14:00,
2013-05-02 08:20:00,36.1,30.8,30.40,NNE,22,11.2,16.3,81,0.02,,,1.06,wxRedirect v1.1,2013-05-02 13:20:00,
2013-05-02 08:25:00,36.0,30.7,30.40,NNE,22,18.8,32.0,81,0.02,,,1.06,wxRedirect v1.1,2013-05-02 13:25:00,
2013-05-02 08:30:00,35.8,30.5,30.40,NNW,337,21.5,32.0,81,0.00,,,1.06,wxRedirect v1.1,2013-05-02 13:30:00,
2013-05-02 08:36:00,35.8,30.5,30.40,North,0,13.4,21.5,81,0.00,,,1.06,wxRedirect v1.1,2013-05-02 13:36:00,
2013-05-02 08:41:00,35.8,30.5,30.40,North,0,7.2,29.3,81,0.02,,,1.08,wxRedirect v1.1,2013-05-02 13:41:00,
2013-05-02 08:46:00,35.8,30.5,30.42,NNE,22,15.9,15.9,81,0.02,,,1.08,wxRedirect v1.1,2013-05-02 13:46:00,
2013-05-02 08:52:00,35.6,30.0,30.43,NNE,22,7.4,19.0,80,0.02,,,1.08,wxRedirect v1.1,2013-05-02 13:52:00,
2013-05-02 08:57:00,35.4,29.8,30.43,NNE,22,17.9,19.0,80,0.02,,,1.08,wxRedirect v1.1,2013-05-02 13:57:00,
2013-05-02 09:02:00,35.4,29.8,30.44,NE,45,16.3,17.9,80,0.02,,,1.08,wxRedirect v1.1,2013-05-02 14:02:00,
2013-05-02 09:08:00,35.4,29.8,30.43,NNW,337,14.3,16.3,80,0.02,,,1.08,wxRedirect v1.1,2013-05-02 14:08:00,
2013-05-02 09:13:00,35.4,30.1,30.44,North,0,19.2,19.2,81,0.04,,,1.10,wxRedirect v1.1,2013-05-02 14:13:00,
2013-05-02 09:18:00,35.4,30.1,30.45,North,0,8.3,19.2,81,0.04,,,1.10,wxRedirect v1.1,2013-05-02 14:18:00,
2013-05-02 09:24:00,35.4,30.1,30.44,NNE,22,20.1,20.1,81,0.04,,,1.10,wxRedirect v1.1,2013-05-02 14:24:00,
2013-05-02 09:29:00,35.8,30.5,30.45,NNW,337,9.2,20.1,81,0.04,,,1.10,wxRedirect v1.1,2013-05-02 14:29:00,
2013-05-02 09:34:00,35.8,30.5,30.45,North,0,16.1,16.1,81,0.04,,,1.10,wxRedirect v1.1,2013-05-02 14:34:00,
2013-05-02 09:40:00,34.9,29.6,30.44,NNW,337,7.6,16.1,81,0.04,,,1.12,wxRedirect v1.1,2013-05-02 14:40:00,
2013-05-02 09:45:00,35.4,30.4,30.44,North,0,19.0,19.0,82,0.04,,,1.12,wxRedirect v1.1,2013-05-02 14:45:00,
2013-05-02 09:51:00,35.8,30.8,30.43,NE,45,15.7,19.0,82,0.04,,,1.12,wxRedirect v1.1,2013-05-02 14:51:00,
2013-05-02 09:56:00,35.8,30.8,30.43,NNE,22,6.0,15.7,82,0.04,,,1.12,wxRedirect v1.1,2013-05-02 14:56:00,
2013-05-02 10:01:00,36.0,31.0,30.43,NNE,22,19.0,19.0,82,0.04,,,1.12,wxRedirect v1.1,2013-05-02 15:01:00,
2013-05-02 10:07:00,36.1,31.1,30.44,NNW,337,19.7,19.7,82,0.06,,,1.14,wxRedirect v1.1,2013-05-02 15:07:00,
2013-05-02 10:12:00,36.1,31.1,30.43,NE,45,15.0,20.6,82,0.04,,,1.14,wxRedirect v1.1,2013-05-02 15:12:00,
2013-05-02 10:17:00,36.3,31.3,30.43,NNW,337,17.7,20.6,82,0.04,,,1.14,wxRedirect v1.1,2013-05-02 15:17:00,
2013-05-02 10:22:00,36.3,31.3,30.43,NNW,337,10.7,28.2,82,0.04,,,1.14,wxRedirect v1.1,2013-05-02 15:22:00,
2013-05-02 10:28:00,36.5,31.5,30.43,North,0,13.9,30.2,82,0.04,,,1.14,wxRedirect v1.1,2013-05-02 15:28:00,
2013-05-02 10:33:00,35.8,30.5,30.43,NNW,337,9.8,30.2,81,0.04,,,1.14,wxRedirect v1.1,2013-05-02 15:33:00,
2013-05-02 10:38:00,36.0,31.0,30.43,North,0,15.9,19.5,82,0.02,,,1.14,wxRedirect v1.1,2013-05-02 15:38:00,
2013-05-02 10:44:00,36.9,31.9,30.44,ENE,67,13.0,15.9,82,0.02,,,1.14,wxRedirect v1.1,2013-05-02 15:44:00,
2013-05-02 10:49:00,36.9,31.6,30.44,North,0,15.4,15.4,81,0.02,,,1.14,wxRedirect v1.1,2013-05-02 15:49:00,
2013-05-02 10:54:00,36.9,31.6,30.44,North,0,25.1,25.1,81,0.02,,,1.14,wxRedirect v1.1,2013-05-02 15:54:00,
2013-05-02 11:00:00,36.1,30.8,30.45,NNW,337,11.4,30.4,81,0.00,,,1.14,wxRedirect v1.1,2013-05-02 16:00:00,
2013-05-02 11:05:00,36.9,31.6,30.45,North,0,15.0,17.0,81,0.00,,,1.14,wxRedirect v1.1,2013-05-02 16:05:00,
2013-05-02 11:10:00,37.0,31.7,30.45,NW,315,31.5,31.5,81,0.00,,,1.14,wxRedirect v1.1,2013-05-02 16:10:00,
2013-05-02 11:16:00,37.0,31.7,30.45,NE,45,9.2,31.5,81,0.00,,,1.14,wxRedirect v1.1,2013-05-02 16:16:00,
2013-05-02 11:21:00,37.0,31.7,30.45,NE,45,16.8,29.5,81,0.00,,,1.14,wxRedirect v1.1,2013-05-02 16:21:00,
2013-05-02 11:26:00,36.3,30.7,30.46,NE,45,23.7,29.5,80,0.00,,,1.14,wxRedirect v1.1,2013-05-02 16:26:00,
2013-05-02 11:32:00,36.5,30.9,30.46,NNE,22,11.9,23.7,80,0.00,,,1.14,wxRedirect v1.1,2013-05-02 16:32:00,
2013-05-02 11:37:00,36.7,31.1,30.45,NE,45,16.1,16.1,80,0.00,,,1.14,wxRedirect v1.1,2013-05-02 16:37:00,
2013-05-02 11:42:00,37.4,31.5,30.45,North,0,18.1,18.6,79,0.00,,,1.14,wxRedirect v1.1,2013-05-02 16:42:00,
2013-05-02 11:48:00,37.6,31.7,30.45,NNW,337,19.0,25.9,79,0.00,,,1.14,wxRedirect v1.1,2013-05-02 16:48:00,
2013-05-02 11:53:00,37.8,31.8,30.45,North,0,12.8,27.7,79,0.00,,,1.14,wxRedirect v1.1,2013-05-02 16:53:00,
2013-05-02 11:58:00,37.9,32.0,30.46,North,0,2.9,27.7,79,0.00,,,1.14,wxRedirect v1.1,2013-05-02 16:58:00,
2013-05-02 12:04:00,37.9,32.0,30.46,North,0,6.9,26.8,79,0.00,,,1.14,wxRedirect v1.1,2013-05-02 17:04:00,
2013-05-02 12:09:00,38.1,31.9,30.46,North,0,11.2,20.6,78,0.00,,,1.14,wxRedirect v1.1,2013-05-02 17:09:00,
2013-05-02 12:14:00,38.1,31.9,30.46,NNE,22,15.2,24.2,78,0.00,,,1.14,wxRedirect v1.1,2013-05-02 17:14:00,
2013-05-02 12:20:00,38.3,32.1,30.46,NNE,22,5.6,24.2,78,0.00,,,1.14,wxRedirect v1.1,2013-05-02 17:20:00,
2013-05-02 12:25:00,37.6,31.3,30.46,NE,45,21.0,23.3,78,0.00,,,1.14,wxRedirect v1.1,2013-05-02 17:25:00,
2013-05-02 12:30:00,38.5,32.2,30.46,NE,45,11.9,21.0,78,0.00,,,1.14,wxRedirect v1.1,2013-05-02 17:30:00,
2013-05-02 12:36:00,38.7,32.4,30.46,North,0,8.5,21.0,78,0.00,,,1.14,wxRedirect v1.1,2013-05-02 17:36:00,
2013-05-02 12:41:00,38.8,32.6,30.45,NNW,337,9.8,10.5,78,0.00,,,1.14,wxRedirect v1.1,2013-05-02 17:41:00,
2013-05-02 12:47:00,39.0,32.8,30.45,NNW,337,5.1,10.5,78,0.00,,,1.14,wxRedirect v1.1,2013-05-02 17:47:00,
2013-05-02 12:52:00,39.2,32.6,30.45,NNW,337,10.7,13.6,77,0.00,,,1.14,wxRedirect v1.1,2013-05-02 17:52:00,
2013-05-02 12:57:00,39.4,32.8,30.45,North,0,12.8,13.6,77,0.00,,,1.14,wxRedirect v1.1,2013-05-02 17:57:00,
2013-05-02 13:02:00,39.4,32.8,30.44,North,0,4.3,12.8,77,0.00,,,1.14,wxRedirect v1.1,2013-05-02 18:02:00,
2013-05-02 13:08:00,39.0,32.4,30.45,NW,315,14.8,15.0,77,0.00,,,1.14,wxRedirect v1.1,2013-05-02 18:08:00,
2013-05-02 13:13:00,39.9,33.3,30.45,North,0,13.2,22.1,77,0.00,,,1.14,wxRedirect v1.1,2013-05-02 18:13:00,
2013-05-02 13:18:00,40.3,33.3,30.44,North,0,6.7,22.1,76,0.00,,,1.14,wxRedirect v1.1,2013-05-02 18:18:00,
2013-05-02 13:24:00,40.6,33.3,30.45,North,0,10.1,20.4,75,0.00,,,1.14,wxRedirect v1.1,2013-05-02 18:24:00,
2013-05-02 13:29:00,40.6,33.3,30.44,NNW,337,6.9,15.2,75,0.00,,,1.14,wxRedirect v1.1,2013-05-02 18:29:00,
2013-05-02 13:34:00,41.2,33.2,30.43,NNW,337,9.4,10.1,73,0.00,,,1.14,wxRedirect v1.1,2013-05-02 18:34:00,
2013-05-02 13:40:00,41.2,32.8,30.44,NNE,22,10.1,31.1,72,0.00,,,1.14,wxRedirect v1.1,2013-05-02 18:40:00,
2013-05-02 13:45:00,41.5,32.5,30.44,North,0,7.8,31.1,70,0.00,,,1.14,wxRedirect v1.1,2013-05-02 18:45:00,
2013-05-02 13:51:00,41.5,31.4,30.44,North,0,19.2,19.2,67,0.00,,,1.14,wxRedirect v1.1,2013-05-02 18:51:00,
2013-05-02 13:56:00,41.4,30.8,30.45,NNW,337,15.4,19.2,66,0.00,,,1.14,wxRedirect v1.1,2013-05-02 18:56:00,
2013-05-02 14:01:00,42.1,31.1,30.44,NW,315,8.3,26.4,65,0.00,,,1.14,wxRedirect v1.1,2013-05-02 19:01:00,
2013-05-02 14:07:00,42.3,30.9,30.45,NNE,22,14.8,26.4,64,0.00,,,1.14,wxRedirect v1.1,2013-05-02 19:07:00,
2013-05-02 14:12:00,42.6,30.8,30.44,North,0,8.1,18.1,63,0.00,,,1.14,wxRedirect v1.1,2013-05-02 19:12:00,
2013-05-02 14:17:00,42.6,31.2,30.44,North,0,17.2,17.2,64,0.00,,,1.14,wxRedirect v1.1,2013-05-02 19:17:00,
2013-05-02 14:23:00,42.4,30.3,30.44,NNE,22,7.4,25.7,62,0.00,,,1.14,wxRedirect v1.1,2013-05-02 19:23:00,
2013-05-02 14:28:00,43.3,31.2,30.44,North,0,10.5,25.7,62,0.00,,,1.14,wxRedirect v1.1,2013-05-02 19:28:00,
2013-05-02 14:33:00,43.7,30.7,30.44,NNW,337,20.4,24.4,60,0.00,,,1.14,wxRedirect v1.1,2013-05-02 19:33:00,
2013-05-02 14:39:00,44.1,30.7,30.43,NNE,22,17.4,20.4,59,0.00,,,1.14,wxRedirect v1.1,2013-05-02 19:39:00,
2013-05-02 14:44:00,43.7,30.3,30.43,North,0,16.6,17.4,59,0.00,,,1.14,wxRedirect v1.1,2013-05-02 19:44:00,
2013-05-02 14:49:00,44.8,30.9,30.44,North,0,13.9,22.1,58,0.00,,,1.14,wxRedirect v1.1,2013-05-02 19:49:00,
2013-05-02 14:54:00,45.0,31.1,30.43,NNE,22,13.9,23.0,58,0.00,,,1.14,wxRedirect v1.1,2013-05-02 19:54:00,
2013-05-02 15:00:00,45.1,30.8,30.44,North,0,20.4,23.0,57,0.00,,,1.14,wxRedirect v1.1,2013-05-02 20:00:00,
2013-05-02 15:05:00,45.3,30.5,30.43,North,0,18.1,20.4,56,0.00,,,1.14,wxRedirect v1.1,2013-05-02 20:05:00,
2013-05-02 15:10:00,45.7,30.8,30.43,NNE,22,7.4,18.1,56,0.00,,,1.14,wxRedirect v1.1,2013-05-02 20:10:00,
2013-05-02 15:16:00,46.2,31.3,30.43,North,0,15.9,25.9,56,0.00,,,1.14,wxRedirect v1.1,2013-05-02 20:16:00,
2013-05-02 15:21:00,46.9,31.1,30.43,North,0,28.2,28.6,54,0.00,,,1.14,wxRedirect v1.1,2013-05-02 20:21:00,
2013-05-02 15:27:00,47.1,30.8,30.43,NNE,22,13.4,28.6,53,0.08,,,1.14,wxRedirect v1.1,2013-05-02 20:27:00,
2013-05-02 15:32:00,47.5,31.1,30.43,NNW,337,7.6,24.8,53,0.00,,,1.14,wxRedirect v1.1,2013-05-02 20:32:00,
2013-05-02 15:37:00,47.5,31.1,30.43,NE,45,20.8,20.8,53,0.00,,,1.14,wxRedirect v1.1,2013-05-02 20:37:00,
2013-05-02 15:43:00,47.8,31.0,30.42,NE,45,19.5,28.0,52,0.00,,,1.14,wxRedirect v1.1,2013-05-02 20:43:00,
2013-05-02 15:48:00,48.0,31.1,30.42,NE,45,19.5,19.5,56,0.04,,,1.14,wxRedirect v1.1,2013-05-02 20:48:00,
2013-05-02 15:53:00,48.2,31.3,30.42,North,0,26.6,26.6,52,0.00,,,1.14,wxRedirect v1.1,2013-05-02 20:53:00,
2013-05-02 15:59:00,48.6,31.2,30.42,North,0,15.4,26.6,51,0.00,,,1.14,wxRedirect v1.1,2013-05-02 20:59:00,
2013-05-02 16:04:00,48.7,30.9,30.42,NNW,337,12.5,19.5,50,0.00,,,1.14,wxRedirect v1.1,2013-05-02 21:04:00,
2013-05-02 16:09:00,48.7,30.9,30.42,North,0,17.4,25.1,50,0.00,,,1.14,wxRedirect v1.1,2013-05-02 21:09:00,
2013-05-02 16:15:00,48.9,30.0,30.42,NNE,22,27.3,27.3,48,0.00,,,1.14,wxRedirect v1.1,2013-05-02 21:15:00,
2013-05-02 16:20:00,48.9,30.0,30.42,NE,45,16.3,28.2,48,0.00,,,1.14,wxRedirect v1.1,2013-05-02 21:20:00,
2013-05-02 16:25:00,48.9,30.5,30.41,NE,45,16.6,28.2,49,0.00,,,1.14,wxRedirect v1.1,2013-05-02 21:25:00,
2013-05-02 16:31:00,48.9,30.0,30.41,North,0,22.4,22.4,48,0.00,,,1.14,wxRedirect v1.1,2013-05-02 21:31:00,
2013-05-02 16:36:00,48.9,30.5,30.41,North,0,15.7,22.4,49,0.00,,,1.14,wxRedirect v1.1,2013-05-02 21:36:00,
2013-05-02 16:41:00,49.3,30.3,30.42,North,0,17.9,22.4,48,0.00,,,1.14,wxRedirect v1.1,2013-05-02 21:41:00,
2013-05-02 16:47:00,49.3,30.3,30.41,NE,45,21.0,31.3,48,0.00,,,1.14,wxRedirect v1.1,2013-05-02 21:47:00,
2013-05-02 16:52:00,49.3,29.8,30.41,NE,45,18.1,31.3,47,0.00,,,1.14,wxRedirect v1.1,2013-05-02 21:52:00,
2013-05-02 16:57:00,49.3,29.8,30.41,NNE,22,15.9,19.0,47,0.00,,,1.14,wxRedirect v1.1,2013-05-02 21:57:00,
2013-05-02 17:03:00,49.3,29.8,30.41,North,0,19.2,19.2,47,0.00,,,1.14,wxRedirect v1.1,2013-05-02 22:03:00,
2013-05-02 17:08:00,49.3,29.2,30.41,NE,45,20.6,20.6,46,0.00,,,1.14,wxRedirect v1.1,2013-05-02 22:08:00,
2013-05-02 17:13:00,49.1,29.6,30.41,NNE,22,11.2,21.9,47,0.00,,,1.14,wxRedirect v1.1,2013-05-02 22:13:00,
2013-05-02 17:19:00,49.3,28.7,30.41,North,0,20.1,21.9,45,0.04,,,1.14,wxRedirect v1.1,2013-05-02 22:19:00,
2013-05-02 17:24:00,49.3,28.1,30.41,North,0,10.3,22.6,44,0.00,,,1.14,wxRedirect v1.1,2013-05-02 22:24:00,
2013-05-02 17:29:00,49.3,27.6,30.40,NNE,22,18.1,23.9,43,0.00,,,1.14,wxRedirect v1.1,2013-05-02 22:29:00,
2013-05-02 17:35:00,49.3,28.1,30.41,NE,45,11.6,25.5,44,0.00,,,1.14,wxRedirect v1.1,2013-05-02 22:35:00,
2013-05-02 17:40:00,49.3,28.9,30.40,NE,45,18.3,18.3,45,0.00,,,1.14,wxRedirect v1.1,2013-05-02 22:40:00,
2013-05-02 17:45:00,49.3,28.7,30.40,North,0,13.2,18.3,45,0.00,,,1.14,wxRedirect v1.1,2013-05-02 22:45:00,
2013-05-02 17:51:00,49.3,28.1,30.40,North,0,26.8,26.8,44,0.00,,,1.14,wxRedirect v1.1,2013-05-02 22:51:00,
2013-05-02 17:56:00,49.3,28.1,30.40,NNE,22,11.6,26.8,44,0.00,,,1.14,wxRedirect v1.1,2013-05-02 22:56:00,
2013-05-02 18:01:00,49.3,28.1,30.40,NNE,22,9.6,19.7,44,0.00,,,1.14,wxRedirect v1.1,2013-05-02 23:01:00,
2013-05-02 18:07:00,49.3,28.7,30.40,NE,45,2.7,14.3,45,0.08,,,1.14,wxRedirect v1.1,2013-05-02 23:07:00,
2013-05-02 18:12:00,49.3,28.7,30.40,NE,45,11.6,18.6,45,0.00,,,1.14,wxRedirect v1.1,2013-05-02 23:12:00,
2013-05-02 18:17:00,49.3,29.2,30.40,NNE,22,17.2,18.6,46,0.00,,,1.14,wxRedirect v1.1,2013-05-02 23:17:00,
2013-05-02 18:23:00,49.3,29.2,30.40,NNE,22,6.3,17.2,46,0.00,,,1.14,wxRedirect v1.1,2013-05-02 23:23:00,
2013-05-02 18:28:00,49.3,29.8,30.40,North,0,17.9,23.3,47,0.00,,,1.14,wxRedirect v1.1,2013-05-02 23:28:00,
2013-05-02 18:33:00,49.3,29.8,30.40,NNE,22,19.0,23.3,47,0.00,,,1.14,wxRedirect v1.1,2013-05-02 23:33:00,
2013-05-02 18:39:00,49.3,29.8,30.39,NNE,22,19.5,19.5,47,0.00,,,1.14,wxRedirect v1.1,2013-05-02 23:39:00,
2013-05-02 18:44:00,49.1,29.6,30.40,North,0,5.6,19.5,47,0.00,,,1.14,wxRedirect v1.1,2013-05-02 23:44:00,
2013-05-02 18:49:00,49.3,30.3,30.39,NE,45,9.2,9.2,48,0.00,,,1.14,wxRedirect v1.1,2013-05-02 23:49:00,
2013-05-02 18:55:00,49.1,30.2,30.40,North,0,14.3,14.3,48,0.00,,,1.14,wxRedirect v1.1,2013-05-02 23:55:00,
2013-05-02 19:00:00,49.1,30.2,30.40,North,0,19.5,19.5,48,0.00,,,1.14,wxRedirect v1.1,2013-05-03 00:00:00,
2013-05-02 19:05:00,49.1,30.2,30.40,NE,45,7.4,24.4,48,0.00,,,1.14,wxRedirect v1.1,2013-05-03 00:05:00,
2013-05-02 19:11:00,48.9,30.5,30.39,NNE,22,23.7,24.4,49,0.00,,,1.14,wxRedirect v1.1,2013-05-03 00:11:00,
2013-05-02 19:16:00,48.7,29.8,30.39,NNE,22,16.6,23.7,48,0.00,,,1.14,wxRedirect v1.1,2013-05-03 00:16:00,
2013-05-02 19:21:00,48.7,30.4,30.39,NE,45,8.9,19.2,49,0.00,,,1.14,wxRedirect v1.1,2013-05-03 00:21:00,
2013-05-02 19:27:00,48.7,30.4,30.39,NNE,22,2.9,19.5,49,0.00,,,1.14,wxRedirect v1.1,2013-05-03 00:27:00,
2013-05-02 19:32:00,48.7,30.4,30.39,NNE,22,18.6,19.5,49,0.00,,,1.14,wxRedirect v1.1,2013-05-03 00:32:00,
2013-05-02 19:37:00,48.4,29.5,30.39,NNW,337,16.6,18.6,48,0.00,,,1.14,wxRedirect v1.1,2013-05-03 00:37:00,
2013-05-02 19:43:00,48.4,29.5,30.39,NNE,22,8.7,16.6,48,0.00,,,1.14,wxRedirect v1.1,2013-05-03 00:43:00,
2013-05-02 19:48:00,48.0,29.1,30.40,North,0,13.2,13.2,48,0.00,,,1.14,wxRedirect v1.1,2013-05-03 00:48:00,
2013-05-02 19:53:00,48.0,29.1,30.40,NE,45,16.3,16.3,48,0.00,,,1.14,wxRedirect v1.1,2013-05-03 00:53:00,
2013-05-02 19:59:00,48.0,29.7,30.40,NE,45,16.3,16.3,49,0.00,,,1.14,wxRedirect v1.1,2013-05-03 00:59:00,
2013-05-02 20:04:00,47.8,29.5,30.40,NNW,337,6.3,16.3,49,0.00,,,1.14,wxRedirect v1.1,2013-05-03 01:04:00,
2013-05-02 20:09:00,47.5,29.2,30.40,North,0,11.4,11.4,49,0.00,,,1.14,wxRedirect v1.1,2013-05-03 01:09:00,
2013-05-02 20:15:00,47.3,29.6,30.40,North,0,8.3,11.4,50,0.00,,,1.14,wxRedirect v1.1,2013-05-03 01:15:00,
2013-05-02 20:20:00,47.1,29.4,30.40,NNE,22,4.7,11.4,50,0.00,,,1.14,wxRedirect v1.1,2013-05-03 01:20:00,
2013-05-02 20:25:00,47.1,29.9,30.40,North,0,3.6,8.3,51,0.00,,,1.14,wxRedirect v1.1,2013-05-03 01:25:00,
2013-05-02 20:31:00,46.2,29.0,30.40,North,0,4.0,11.4,51,0.00,,,1.14,wxRedirect v1.1,2013-05-03 01:31:00,
2013-05-02 20:36:00,46.8,30.0,30.40,North,0,8.1,11.4,52,0.00,,,1.14,wxRedirect v1.1,2013-05-03 01:36:00,
2013-05-02 20:41:00,46.6,29.4,30.40,NNE,22,2.9,21.0,51,0.00,,,1.14,wxRedirect v1.1,2013-05-03 01:41:00,
2013-05-02 20:47:00,46.6,29.4,30.40,NNE,22,10.5,21.0,51,0.00,,,1.14,wxRedirect v1.1,2013-05-03 01:47:00,
2013-05-02 20:52:00,46.2,29.0,30.40,NE,45,7.6,13.2,51,0.00,,,1.14,wxRedirect v1.1,2013-05-03 01:52:00,
2013-05-02 20:57:00,46.0,28.9,30.40,North,0,13.4,13.4,51,0.00,,,1.14,wxRedirect v1.1,2013-05-03 01:57:00,
2013-05-02 21:03:00,46.0,28.9,30.40,NNE,22,7.2,13.4,51,0.00,,,1.14,wxRedirect v1.1,2013-05-03 02:03:00,
2013-05-02 21:08:00,45.7,28.6,30.40,North,0,6.9,7.8,51,0.00,,,1.14,wxRedirect v1.1,2013-05-03 02:08:00,
2013-05-02 21:13:00,45.9,28.7,30.40,NE,45,6.3,7.8,51,0.00,,,1.14,wxRedirect v1.1,2013-05-03 02:13:00,
2013-05-02 21:18:00,45.9,29.2,30.40,NE,45,9.2,9.2,52,0.00,,,1.14,wxRedirect v1.1,2013-05-03 02:18:00,
2013-05-02 21:23:00,45.7,29.0,30.40,NNE,22,0.0,9.2,52,0.00,,,1.14,wxRedirect v1.1,2013-05-03 02:23:00,
2013-05-02 21:29:00,45.7,29.0,30.40,NE,45,0.0,5.8,52,0.00,,,1.14,wxRedirect v1.1,2013-05-03 02:29:00,
2013-05-02 21:34:00,45.7,29.0,30.40,NNE,22,3.1,4.3,52,0.00,,,1.14,wxRedirect v1.1,2013-05-03 02:34:00,
2013-05-02 21:39:00,45.5,29.3,30.40,North,0,3.6,3.8,53,0.00,,,1.14,wxRedirect v1.1,2013-05-03 02:39:00,
2013-05-02 21:45:00,45.3,29.1,30.40,North,0,0.7,3.8,53,0.00,,,1.14,wxRedirect v1.1,2013-05-03 02:45:00,
2013-05-02 21:50:00,45.1,29.0,30.40,North,0,4.9,7.2,53,0.00,,,1.14,wxRedirect v1.1,2013-05-03 02:50:00,
2013-05-02 21:55:00,44.6,28.5,30.40,North,0,0.0,7.2,53,0.00,,,1.14,wxRedirect v1.1,2013-05-03 02:55:00,
2013-05-02 22:01:00,44.8,29.1,30.40,North,0,5.4,5.4,54,0.00,,,1.14,wxRedirect v1.1,2013-05-03 03:01:00,
2013-05-02 22:06:00,45.0,29.3,30.40,North,0,4.7,5.4,54,0.00,,,1.14,wxRedirect v1.1,2013-05-03 03:06:00,
2013-05-02 22:12:00,45.0,29.3,30.40,North,0,0.0,4.7,54,0.00,,,1.14,wxRedirect v1.1,2013-05-03 03:12:00,
2013-05-02 22:17:00,44.8,29.1,30.40,North,0,0.0,0.0,54,0.00,,,1.14,wxRedirect v1.1,2013-05-03 03:17:00,
2013-05-02 22:22:00,44.4,29.2,30.40,North,0,0.0,2.9,55,0.00,,,1.14,wxRedirect v1.1,2013-05-03 03:22:00,
2013-05-02 22:28:00,44.4,29.2,30.40,North,0,0.0,2.9,55,0.00,,,1.14,wxRedirect v1.1,2013-05-03 03:28:00,
2013-05-02 22:33:00,44.2,29.0,30.40,North,0,1.6,1.6,55,0.00,,,1.14,wxRedirect v1.1,2013-05-03 03:33:00,
2013-05-02 22:38:00,44.1,28.9,30.40,North,0,2.7,2.7,55,0.00,,,1.14,wxRedirect v1.1,2013-05-03 03:38:00,
2013-05-02 22:44:00,43.7,28.5,30.39,North,0,2.5,2.7,55,0.00,,,1.14,wxRedirect v1.1,2013-05-03 03:44:00,
2013-05-02 22:49:00,43.7,28.5,30.39,North,0,0.0,2.5,55,0.00,,,1.14,wxRedirect v1.1,2013-05-03 03:49:00,
2013-05-02 22:54:00,43.3,28.6,30.39,North,0,0.0,0.0,56,0.00,,,1.14,wxRedirect v1.1,2013-05-03 03:54:00,
2013-05-02 22:59:00,43.3,28.6,30.39,North,0,0.0,0.0,56,0.00,,,1.14,wxRedirect v1.1,2013-05-03 03:59:00,
2013-05-02 23:01:00,43.2,28.9,30.39,North,0,0.0,0.0,57,0.00,,,1.12,wxRedirect v1.1,2013-05-03 04:01:00,
2013-05-02 23:02:00,43.2,28.9,30.38,North,0,0.0,0.0,57,0.00,,,1.12,wxRedirect v1.1,2013-05-03 04:02:00,
2013-05-02 23:03:00,43.0,28.7,30.39,North,0,0.0,0.0,57,0.00,,,1.12,wxRedirect v1.1,2013-05-03 04:03:00,
2013-05-02 23:04:00,43.0,28.7,30.39,North,0,0.0,0.0,57,0.00,,,1.12,wxRedirect v1.1,2013-05-03 04:04:00,
2013-05-02 23:10:00,43.0,29.1,30.38,North,0,0.0,0.0,58,0.00,,,1.12,wxRedirect v1.1,2013-05-03 04:10:00,
2013-05-02 23:15:00,42.6,28.8,30.38,North,0,0.4,0.4,58,0.00,,,1.12,wxRedirect v1.1,2013-05-03 04:15:00,
2013-05-02 23:20:00,41.9,28.1,30.38,North,0,0.0,0.4,58,0.00,,,1.12,wxRedirect v1.1,2013-05-03 04:20:00,
2013-05-02 23:26:00,42.4,29.1,30.38,North,0,0.0,0.9,59,0.00,,,1.12,wxRedirect v1.1,2013-05-03 04:26:00,
2013-05-02 23:31:00,42.1,28.7,30.38,North,0,0.0,0.9,59,0.00,,,1.12,wxRedirect v1.1,2013-05-03 04:31:00,
2013-05-02 23:36:00,42.1,28.7,30.38,North,0,0.0,0.0,59,0.00,,,1.12,wxRedirect v1.1,2013-05-03 04:36:00,
2013-05-02 23:42:00,41.5,28.7,30.37,North,0,0.0,0.0,60,0.00,,,1.12,wxRedirect v1.1,2013-05-03 04:42:00,
2013-05-02 23:47:00,41.7,28.9,30.37,North,0,0.0,0.0,60,0.00,,,1.12,wxRedirect v1.1,2013-05-03 04:47:00,
2013-05-02 23:52:00,41.5,29.1,30.37,North,0,0.0,0.0,61,0.00,,,1.12,wxRedirect v1.1,2013-05-03 04:52:00,
2013-05-02 23:58:00,41.5,29.1,30.37,North,0,0.0,0.0,61,0.00,,,1.12,wxRedirect v1.1,2013-05-03 04:58:00,